Wind_Speed
67 64 66 59 58 50 54 49 49 43 43 49 45 36 32 32 37 31 30 33 32 34 34 33 33 29 26 27 29 28 27 26 26 27 28 29 32 33 34 37 39 41 47 50 59
50 51 49 51 50 48 43 45 47 44 42 43 34 32 32 33 30 32 35 34 33 34 34 34 34 31 27 28 29 28 28 27 27 27 27 27 29 31 32 35 37 38 38 38 40
46 46 46 46 43 45 44 44 39 36 33 36 33 32 32 35 36 35 35 34 34 34 35 36 32 29 29 29 31 31 31 30 27 28 28 28 30 31 30 33 37 38 40 44 44
40 41 39 45 44 44 42 39 35 35 35 36 33 31 35 36 35 40 36 34 34 34 36 36 32 31 31 32 34 34 33 31 31 29 25 26 27 28 29 31 33 36 38 43 46
42 42 40 42 44 40 39 39 37 37 37 36 36 36 37 38 37 36 39 36 38 35 36 37 34 34 34 35 36 36 36 33 33 31 28 27 29 30 29 30 34 35 37 38 41
43 42 42 38 41 42 42 41 40 41 39 38 41 40 41 40 36 39 39 39 39 37 37 37 36 35 37 39 40 38 38 36 36 34 33 31 31 29 33 33 34 36 34 35 39
44 42 42 43 42 47 47 46 44 46 40 40 41 42 41 44 42 43 42 42 40 37 38 37 37 35 37 39 40 41 39 40 39 36 36 35 33 34 38 38 40 38 39 43 43
46 46 46 45 47 48 53 46 48 46 45 42 44 44 43 46 44 44 43 41 39 38 37 37 37 36 37 38 41 42 39 39 40 37 37 36 38 40 41 42 42 45 46 45 45
48 47 45 46 47 49 48 45 48 48 47 45 45 44 44 44 43 40 40 40 38 38 38 36 36 36 37 39 41 42 40 41 42 38 39 39 40 43 43 46 47 49 49 49 55
49 48 48 46 46 44 47 48 48 50 51 47 45 42 43 44 43 41 41 41 39 38 38 36 35 34 35 38 40 41 39 42 43 42 42 42 42 44 46 50 52 54 55 56 59
50 51 52 51 48 48 48 49 51 52 51 53 51 48 49 47 47 47 45 43 41 41 39 37 35 34 32 33 36 37 39 42 45 45 44 42 47 48 50 53 55 57 60 65 65
56 54 54 56 55 52 47 46 50 54 52 52 55 56 46 54 52 51 49 46 44 42 41 39 37 35 34 34 36 39 41 41 43 44 43 44 48 51 55 57 60 63 65 67 69
62 60 58 58 58 58 57 54 49 53 52 53 55 54 57 58 57 53 51 50 45 43 43 41 39 38 35 35 37 39 40 40 43 43 45 47 51 55 59 62 64 69 71 74 77
62 65 65 60 60 60 60 62 61 55 55 56 57 56 47 59 57 57 54 50 47 45 44 42 41 40 39 37 37 39 42 42 43 47 48 52 53 58 62 66 69 72 75 79 80
72 71 70 70 67 64 63 63 62 62 58 58 58 60 59 60 57 56 52 53 50 46 45 43 41 42 43 42 40 41 44 45 47 50 53 57 57 61 65 69 73 76 79 83 87
78 76 75 74 72 71 69 67 69 67 63 59 60 62 63 66 65 59 56 53 53 49 46 46 44 42 44 44 43 45 48 50 51 54 57 59 62 64 67 73 76 77 80 81 87
78 77 75 75 76 75 75 73 71 71 66 64 62 65 67 66 65 59 56 52 54 52 49 47 46 44 43 44 44 47 51 53 53 56 58 62 64 66 69 75 77 79 81 81 79
79 75 74 76 75 77 78 79 76 69 71 70 69 68 69 68 70 64 57 55 54 54 52 49 49 47 46 45 46 46 50 55 55 57 58 62 64 66 71 75 77 80 82 87 74
75 76 76 78 78 78 79 77 72 72 70 72 72 72 72 70 68 63 58 56 53 52 47 45 46 48 47 46 48 48 47 52 56 59 59 60 67 67 69 75 77 80 84 83 76
71 71 70 73 75 77 77 70 66 68 68 69 72 74 72 71 68 61 59 57 54 53 50 45 44 46 46 47 47 47 48 49 51 53 57 59 64 66 69 73 76 81 80 82 80
59 67 70 73 72 71 64 61 62 64 67 66 70 75 73 71 66 64 62 57 56 55 54 51 47 45 45 45 46 48 50 52 53 56 58 58 65 64 66 72 75 76 80 77 71
65 57 60 70 72 67 59 59 59 63 65 63 68 72 72 69 67 66 63 60 58 56 54 52 47 45 45 44 45 47 49 51 51 53 57 57 61 62 64 70 71 75 75 73 64
74 69 63 61 60 62 61 61 63 64 67 65 67 71 71 66 69 67 64 61 58 57 57 53 47 46 47 44 44 45 47 47 46 50 54 55 58 59 64 66 71 75 76 73 61
85 77 74 67 58 57 64 63 64 66 67 68 67 72 71 70 69 68 65 61 59 59 57 57 51 48 48 48 46 44 46 46 44 49 53 57 55 59 63 67 72 75 71 74 62
86 80 81 75 67 64 63 66 68 67 68 69 66 70 71 71 71 71 67 64 59 56 55 52 49 51 49 47 45 44 46 49 49 52 52 55 58 59 62 68 72 72 75 72 62
88 85 84 79 77 74 67 58 68 71 72 70 67 73 77 74 72 69 70 67 60 56 55 52 51 49 47 47 46 44 48 48 47 52 53 55 58 57 63 67 67 68 71 69 60
82 89 91 84 81 80 70 65 70 76 77 73 72 76 77 78 77 76 74 71 69 62 56 56 53 52 48 49 47 40 49 47 47 48 52 53 55 56 61 63 63 66 63 65 58
Wind_Direction
269 273 273 275 280 274 277 275 277 275 276 278 281 278 262 263 264 267 280 278 270 269 266 271 272 271 265 266 269 268 271 272 275 281 276 273 272 271 268 264 258 255 252 250 248
274 274 270 274 272 275 269 271 269 276 278 274 270 263 258 262 260 272 276 276 275 272 268 274 277 270 263 264 269 269 268 271 273 278 278 280 278 275 276 280 280 279 275 260 258
273 269 271 269 268 265 264 265 268 266 262 264 262 259 253 257 267 270 277 274 277 273 268 276 277 266 261 264 266 266 265 267 273 276 280 283 282 279 277 276 271 273 274 273 276
268 270 264 258 261 260 265 267 261 251 254 254 257 255 251 259 266 266 274 273 277 274 268 274 272 264 262 261 263 264 266 269 273 276 281 283 281 282 285 284 281 279 276 271 273
268 268 265 263 254 256 253 252 256 254 255 252 254 254 254 260 267 269 272 272 276 273 268 272 271 265 261 261 263 264 265 268 271 275 281 281 283 287 286 286 288 285 282 279 277
267 266 265 258 250 245 249 247 251 254 255 258 256 257 255 257 265 267 273 270 275 271 269 271 270 264 261 258 258 261 262 265 269 276 280 280 282 288 293 290 299 286 283 285 284
268 263 257 257 254 247 246 249 247 251 252 255 247 250 249 258 260 264 270 268 273 268 268 271 271 263 260 257 256 259 262 264 270 275 281 279 280 288 297 299 306 302 295 295 296
267 263 259 254 252 251 250 252 249 253 250 247 247 249 253 259 261 266 267 265 268 264 270 272 270 264 260 255 255 258 262 265 270 275 275 276 283 287 296 298 303 304 298 300 300
267 263 260 258 254 252 252 250 247 247 249 249 248 250 256 258 263 260 264 265 266 264 267 270 267 265 260 254 252 256 261 263 269 274 275 278 281 286 294 295 300 300 302 304 301
268 262 257 254 252 253 249 247 248 244 246 244 247 246 253 252 256 258 263 264 265 264 266 270 266 263 261 256 255 259 262 265 270 272 276 277 282 288 292 295 298 302 305 304 304
268 263 259 259 254 252 251 248 244 246 242 244 242 245 246 251 252 255 260 261 263 263 264 269 264 261 255 254 257 259 260 265 268 271 275 279 285 291 291 294 297 303 306 305 305
262 262 260 256 257 253 250 249 245 244 243 244 248 249 245 251 251 254 257 259 260 261 263 267 264 259 255 252 253 259 263 266 266 270 273 279 286 289 292 294 300 304 306 308 309
260 257 258 258 255 255 253 252 249 245 245 241 246 250 250 253 253 253 254 255 256 259 260 264 262 257 255 256 258 262 264 266 267 268 274 282 286 289 293 296 302 304 308 311 314
258 258 254 252 256 255 254 254 253 247 243 242 241 240 244 252 253 256 253 254 256 255 257 259 260 257 258 261 264 265 265 263 263 269 275 280 282 288 295 298 302 306 309 312 316
259 261 256 254 251 251 252 252 252 250 246 242 242 241 238 241 248 253 252 251 255 253 254 257 259 260 260 264 266 267 264 262 267 271 278 282 285 290 297 300 304 308 310 314 321
262 258 257 254 251 250 249 250 249 247 246 245 242 240 243 245 250 250 251 251 254 253 252 255 257 259 261 262 263 263 263 264 268 272 279 283 289 294 298 302 305 309 311 316 320
259 255 252 251 249 249 249 248 248 248 246 246 244 240 239 243 248 249 251 253 251 252 252 254 255 256 259 260 261 264 264 264 268 273 280 286 293 295 298 302 305 308 312 316 321
255 254 253 250 250 249 250 249 249 248 244 241 242 241 239 241 245 250 252 250 248 250 252 254 255 256 257 259 260 265 267 265 266 274 280 286 289 294 297 301 304 310 314 318 323
255 254 254 253 252 251 248 249 250 250 244 239 238 238 240 239 242 245 244 243 244 248 249 251 254 256 256 259 262 265 267 266 267 271 276 284 289 293 298 303 309 312 316 321 323
252 251 250 250 252 250 250 249 251 249 246 238 235 237 237 238 240 242 243 242 244 245 246 251 254 256 259 262 262 264 267 269 271 273 279 286 290 296 301 305 309 313 318 321 321
255 250 248 249 249 251 251 248 244 242 240 234 231 229 232 235 237 240 241 241 243 244 246 250 254 259 259 260 262 264 267 270 274 277 281 285 290 297 303 306 311 315 320 322 323
254 253 249 248 247 247 245 243 235 238 238 231 228 227 229 233 236 239 241 243 243 244 245 250 254 258 261 262 263 264 266 268 275 280 284 291 292 300 305 308 313 317 321 328 328
252 251 249 249 250 246 242 235 233 233 238 231 226 223 225 228 235 239 241 242 244 245 246 249 252 256 259 262 266 270 273 276 280 284 287 292 297 301 304 311 314 319 322 326 326
253 247 247 246 246 244 238 234 232 233 233 231 226 222 222 226 232 235 239 240 242 245 249 249 251 254 255 263 268 272 276 278 280 282 290 290 297 302 305 312 316 321 321 325 327
248 251 246 242 241 242 239 231 228 229 232 234 223 221 221 223 228 232 235 236 236 239 243 246 249 250 257 261 264 268 271 276 278 283 287 291 297 304 307 313 316 320 321 324 329
248 250 246 244 237 238 239 235 228 227 230 231 226 217 218 218 220 227 232 232 230 233 238 241 242 247 252 255 259 265 268 274 279 284 289 294 299 305 310 311 312 316 321 322 328
248 248 248 246 242 233 233 232 226 224 226 229 230 222 217 216 217 223 228 232 235 228 231 234 236 240 242 248 252 259 264 273 278 284 289 295 300 308 310 308 312 315 319 321 329
Height
10630 10630 10632 10632 10634 10636 10638 10639 10641 10641 10642 10644 10644 10644 10645 10646 10647 10648 10648 10648 10649 10649 10650 10650 10649 10649 10649 10650 10651 10651 10652 10653 10654 10654 10655 10656 10657 10658 10659 10659 10661 10662 10663 10666 10668
10616 10617 10618 10620 10622 10623 10626 10629 10630 10631 10632 10633 10634 10635 10637 10638 10639 10641 10641 10640 10641 10641 10642 10642 10642 10642 10643 10644 10644 10645 10646 10647 10648 10648 10649 10650 10651 10651 10652 10652 10652 10651 10651 10653 10655
10604 10605 10607 10610 10611 10612 10614 10616 10619 10621 10622 10624 10624 10626 10629 10630 10631 10633 10633 10632 10633 10633 10634 10634 10634 10635 10636 10637 10638 10639 10639 10640 10642 10643 10644 10645 10644 10644 10646 10646 10646 10645 10645 10645 10644
10593 10595 10597 10601 10601 10602 10604 10605 10608 10611 10612 10614 10616 10618 10620 10622 10624 10625 10625 10625 10625 10626 10626 10626 10627 10628 10629 10630 10630 10631 10632 10634 10634 10636 10638 10638 10637 10637 10638 10638 10637 10636 10637 10637 10636
10583 10584 10587 10589 10590 10592 10595 10597 10599 10601 10603 10605 10607 10609 10612 10614 10616 10617 10617 10617 10617 10618 10619 10619 10619 10620 10621 10622 10623 10624 10625 10626 10627 10628 10629 10631 10629 10629 10629 10628 10628 10628 10628 10628 10627
10572 10574 10575 10578 10580 10583 10586 10588 10590 10591 10594 10597 10599 10601 10603 10606 10608 10609 10609 10609 10609 10609 10610 10610 10610 10611 10612 10614 10615 10616 10617 10618 10619 10621 10621 10623 10622 10621 10621 10620 10619 10618 10617 10616 10614
10562 10563 10565 10568 10570 10573 10576 10579 10581 10581 10585 10588 10590 10592 10594 10597 10599 10600 10601 10601 10602 10602 10602 10602 10602 10603 10604 10605 10606 10608 10610 10610 10611 10613 10614 10614 10614 10613 10612 10610 10610 10609 10606 10604 10602
10550 10552 10554 10556 10559 10562 10565 10568 10571 10572 10576 10578 10580 10583 10585 10586 10590 10591 10592 10592 10593 10593 10594 10594 10594 10595 10596 10597 10599 10601 10603 10604 10604 10606 10606 10606 10605 10604 10603 10601 10601 10599 10596 10593 10589
10537 10540 10543 10545 10547 10550 10553 10556 10560 10563 10564 10568 10572 10574 10576 10577 10580 10582 10583 10584 10585 10585 10586 10586 10586 10587 10588 10589 10591 10593 10596 10597 10597 10599 10598 10598 10598 10595 10595 10593 10590 10588 10585 10582 10578
10525 10527 10529 10532 10535 10538 10541 10545 10548 10552 10554 10557 10561 10565 10566 10569 10570 10572 10574 10575 10576 10577 10578 10578 10578 10578 10579 10581 10583 10586 10588 10588 10589 10590 10590 10589 10589 10588 10586 10581 10578 10574 10571 10567 10563
10513 10514 10516 10520 10523 10526 10530 10533 10537 10539 10543 10547 10550 10553 10555 10558 10560 10563 10565 10566 10567 10569 10570 10570 10571 10571 10572 10573 10576 10578 10579 10580 10580 10581 10581 10581 10577 10576 10576 10573 10568 10564 10559 10553 10546
10497 10500 10503 10506 10509 10513 10516 10520 10524 10528 10531 10534 10538 10541 10544 10546 10549 10552 10555 10557 10558 10560 10561 10563 10563 10563 10564 10566 10568 10569 10570 10571 10572 10572 10572 10573 10568 10566 10563 10560 10555 10550 10544 10538 10529
10483 10484 10487 10490 10494 10499 10503 10507 10511 10515 10519 10521 10524 10528 10531 10535 10538 10541 10544 10546 10548 10551 10552 10554 10554 10555 10556 10558 10559 10560 10561 10562 10562 10563 10564 10562 10559 10554 10551 10548 10542 10536 10529 10520 10512
10466 10468 10470 10475 10478 10482 10487 10492 10494 10501 10504 10507 10511 10516 10521 10519 10525 10528 10533 10536 10538 10540 10542 10544 10545 10546 10548 10549 10550 10551 10552 10553 10554 10554 10553 10552 10554 10544 10540 10534 10529 10523 10515 10506 10496
10444 10448 10452 10458 10461 10465 10470 10475 10479 10481 10488 10490 10498 10502 10506 10508 10512 10517 10521 10526 10528 10530 10533 10535 10536 10538 10539 10540 10541 10542 10543 10544 10545 10544 10542 10539 10540 10534 10530 10523 10516 10508 10499 10490 10479
10419 10425 10430 10435 10443 10447 10451 10456 10459 10461 10473 10480 10484 10487 10491 10495 10499 10505 10510 10514 10517 10520 10523 10524 10527 10528 10529 10531 10532 10533 10534 10535 10535 10533 10531 10527 10526 10524 10518 10509 10503 10497 10488 10479 10468
10394 10398 10407 10413 10420 10426 10431 10435 10437 10443 10458 10464 10469 10473 10476 10481 10483 10490 10497 10502 10506 10509 10512 10514 10516 10517 10519 10521 10522 10523 10524 10525 10526 10523 10521 10517 10514 10512 10506 10498 10492 10485 10477 10468 10454
10369 10377 10385 10391 10397 10403 10408 10411 10419 10433 10437 10447 10451 10457 10462 10467 10471 10478 10485 10490 10493 10496 10499 10503 10505 10507 10509 10511 10513 10514 10515 10515 10516 10514 10512 10506 10500 10501 10494 10488 10481 10473 10462 10453 10439
10346 10353 10363 10367 10372 10378 10384 10393 10406 10409 10417 10426 10433 10439 10446 10452 10458 10464 10471 10476 10481 10485 10488 10491 10494 10496 10499 10500 10502 10503 10504 10505 10506 10505 10504 10499 10486 10489 10483 10474 10466 10459 10450 10438 10426
10325 10330 10339 10342 10347 10352 10360 10379 10386 10389 10395 10405 10414 10422 10430 10436 10443 10450 10456 10465 10469 10473 10477 10481 10483 10486 10488 10490 10491 10493 10493 10494 10494 10495 10493 10490 10474 10477 10473 10464 10457 10448 10440 10428 10415
10302 10309 10318 10320 10325 10331 10348 10360 10365 10367 10374 10385 10395 10405 10414 10421 10429 10435 10443 10451 10455 10461 10465 10469 10473 10475 10478 10479 10481 10482 10483 10483 10483 10482 10480 10482 10466 10467 10461 10454 10447 10438 10429 10416 10402
10283 10293 10297 10298 10304 10318 10331 10341 10348 10350 10357 10368 10377 10389 10399 10407 10414 10421 10430 10436 10443 10448 10453 10456 10462 10464 10467 10470 10470 10471 10472 10473 10473 10472 10467 10468 10461 10456 10448 10441 10434 10426 10416 10405 10391
10261 10270 10277 10280 10290 10304 10312 10321 10326 10334 10339 10351 10361 10371 10382 10393 10400 10408 10416 10423 10430 10435 10441 10445 10453 10454 10457 10458 10460 10462 10461 10462 10463 10460 10456 10455 10451 10449 10439 10430 10423 10414 10404 10394 10382
10228 10247 10255 10265 10277 10281 10290 10301 10310 10316 10323 10333 10346 10356 10367 10378 10386 10394 10401 10408 10416 10422 10427 10433 10440 10443 10444 10447 10450 10450 10450 10451 10452 10449 10449 10438 10443 10435 10429 10421 10411 10403 10394 10383 10371
10205 10220 10229 10244 10258 10261 10266 10283 10290 10300 10308 10315 10331 10342 10350 10360 10371 10378 10385 10393 10402 10408 10413 10420 10427 10430 10432 10436 10439 10440 10440 10440 10441 10440 10438 10433 10428 10426 10418 10408 10400 10392 10381 10371 10361
10185 10192 10201 10220 10231 10238 10249 10270 10277 10282 10290 10301 10314 10320 10326 10343 10353 10362 10368 10377 10386 10394 10400 10408 10415 10418 10421 10425 10429 10432 10429 10430 10431 10428 10426 10424 10418 10416 10408 10401 10393 10385 10374 10363 10354
10160 10165 10170 10193 10203 10217 10237 10246 10254 10260 10272 10282 10290 10300 10315 10325 10336 10345 10351 10361 10370 10379 10387 10394 10402 10406 10411 10413 10419 10426 10415 10421 10421 10418 10417 10413 10410 10406 10400 10391 10385 10376 10367 10357 10348